Weather in Kolpna

Russia / Oryol Oblast     52°13′41″N   37°02′25″E
В апреле 2022 года жителям России запретили посещать сайт meteo.paraplan.net по решению Генеральной прокуратуры. Аудитория сайта уменьшилась в 10 раз. Владельцы сайта не видят смысла в поддержке погодного сервера в таких условиях. Сайт будет закрыт в октябре.
temp.,
°C
wind,
m/s
gust,
m/s
humid.,
%
clouds,
%
prec.,
mm/h
press.,
hPa
HPBL,
m
4 october, tue
tue400:00+9s8168217 0.0 1005696
03:00+9s8158441 0.1 1006853
06:00+9s81682100 0.0 1006839
09:00+10s91679100 0.1 10081474
12:00+7sw41186100 0.3 1010737
15:00+11ssw81369100 0.7 10101497
18:00+8ssw61180100 0.6 10121178
21:00+7ssw6128599 1.0 1013613
5 october, wed
wed500:00+8ssw6118895 0.1 1013772
03:00+8ssw61090100 0.3 1014690
06:00+7sw5990100 0.8 1014670
09:00+7wsw598596 1.3 1016801
12:00+9w587480 0.1 10171035
15:00+9w687699 0.7 10181009
18:00+8w5108490 0.2 1020510
21:00+6wsw4109186 0.2 1021291
6 october, thu
thu600:00+7w5109589 0.0 1021419
03:00+8w5995100 0.2 1021516
06:00+8wsw4109598 0.1 1021458
09:00+10w598832 0.2 1021420
12:00+13w577699 0.0 1021756
15:00+14w577183 0.0 10211082
18:00+12wsw378193 0.0 1021273
21:00+9wsw38935 0.0 1022177
7 october, fri
fri700:00+9wsw410935 0.0 1022208
03:00+8wsw48958 0.0 1022170
06:00+8w489515 0.0 1022167
09:00+11nw598823 0.0 1023332
12:00+14nw57730 0.0 1025635
15:00+15nw46590 0.0 1025872
18:00+11nw33750 0.0 102632
21:00+9nnw22860 0.0 102724
8 october, sat
sat800:00+8n22900 0.0 102812
03:00+7ne11910 0.0 102810
06:00+7se11920 0.0 102810
09:00+10sse23825 0.0 1027181
12:00+14s33625 0.0 1026670
15:00+16s34525 0.0 1024908
18:00+12sse33695 0.0 102323
21:00+10s34755 0.0 102358